Location: Cammerforst
(51.1217°N, 10.4245°E)
Time: 09:52:13
(UTC+00:00)

Daily predictions for brighter satellites

Satellite Brightness Start Highest point End
(mag) Time Altitude Azimuth Time Altitude Azimuth Time Altitude Azimuth
Cosmos 1437 Rocket 4.0 17:17:34 10° SE 17:20:12 19° E 17:22:50 10° NE
Cosmos 1975 3.9 17:16:22 10° SSW 17:20:18 51° WNW 17:24:15 10° N
Cosmos 1733 Rocket 3.1 17:17:27 10° S 17:21:52 68° E 17:26:18 10° NNE
ATLAS 2AS CENTAUR R/B 4.1 17:15:35 10° WNW 17:22:13 32° N 17:28:32 10° NE
Cosmos 2279 Rocket 4.2 17:19:49 10° N 17:26:07 84° W 17:32:22 10° S
CZ-4C R/B 3.7 17:22:56 10° NNE 17:27:12 75° WNW 17:31:16 10° SSW
SL-4 R/B 3.0 17:23:40 10° W 17:27:53 48° SSW 17:32:19 10° SE
MINOTAUR 4 R/B 3.9 17:24:45 10° NNE 17:28:15 74° ESE 17:31:43 10° S
Cosmos 968 Rocket 4.3 17:23:54 10° SSE 17:28:23 29° E 17:32:52 10° NE
Cosmos 2227 4.2 17:23:21 10° NNW 17:29:01 75° ENE 17:34:38 10° SE
Cosmos 1805 3.2 17:25:19 10° S 17:29:12 77° E 17:33:05 10° NNE
Cosmos 2221 Rocket 3.7 17:26:09 10° NNW 17:30:42 85° W 17:35:15 10° S
Cosmos 1697 Rocket 3.5 17:27:17 10° SW 17:32:46 53° NW 17:38:18 10° NNE
Cosmos 1733 3.3 17:33:48 10° SSW 17:37:32 78° W 17:41:18 10° N
Meteor 2-10 4.1 17:32:12 10° S 17:37:46 74° E 17:43:11 10° NNE
IRIDIUM 106 4.5 17:34:21 10° SSE 17:39:23 52° E 17:44:28 10° NNE
Cosmos 2360 Rocket 3.5 17:37:17 10° SE 17:40:42 17° E 17:44:07 10° ENE
USA 186 3.5 17:40:02 13° E 17:41:40 17° ENE 17:43:57 10° NNE
COSMO-SKYMED 1 2.6 17:38:28 10° NNE 17:42:51 89° ESE 17:47:12 10° SSW
SL-14 R/B 3.8 17:39:49 10° NNW 17:43:46 66° W 17:47:44 10° S
ARGOS Delta rocket 4.1 17:39:36 10° NNE 17:44:48 57° E 17:49:41 10° S
Cosmos 2084 Rocket 3.2 17:43:01 10° NW 17:46:50 68° NE 17:50:28 12° SE
CZ-4 R/B 1.7 17:43:33 10° SE 17:47:35 48° ENE 17:51:37 10° N
Resurs 01 Rocket 3.6 17:47:07 11° ENE 17:48:13 11° NE 17:49:38 10° NE
Cosmos 1766 3.2 17:46:38 10° S 17:50:31 66° E 17:54:27 10° NNE
Meteor 1-12 Rocket 4.4 17:45:37 10° S 17:51:29 58° E 17:57:23 10° NNE
IGS 5A 4.5 17:54:24 15° ESE 17:56:54 26° ENE 18:00:22 10° N
Cosmos 1726 2.1 17:53:25 10° SSW 17:57:04 81° W 18:00:45 10° N
USA 215 3.2 17:53:25 10° ENE 18:00:01 82° SSE 18:06:34 10° WSW
COBE Rocket 3.9 17:55:52 10° SSE 18:00:41 83° WSW 18:05:25 10° NNW
CSL-04 Rocket 4.2 17:56:23 11° SE 18:01:09 37° ENE 18:06:08 10° N
BREEZE-M DEB (TANK) 4.4 17:58:51 10° SW 18:03:46 63° SSE 18:25:08 10° ENE
Spot 1 3.9 18:00:20 10° NNE 18:04:33 87° ESE 18:08:38 10° SSW
OBJECT-B 1.3 18:05:08 26° ENE 18:05:08 26° ENE 18:07:12 10° N
Okean-O 3.4 18:06:24 19° ESE 18:08:55 33° ENE 18:12:53 10° N
Meteor 2-5 Rocket 3.6 18:03:35 10° N 18:09:09 72° ENE 18:14:40 10° SSE
Cosmos 1300 Rocket 4.5 18:06:10 10° SE 18:09:46 26° E 18:13:24 10° NNE
Cosmos 2322 Rocket 2.6 18:04:38 10° S 18:09:53 39° ESE 18:15:09 10° NE
Cosmos 489 Rocket 4.5 18:03:55 10° SSW 18:10:15 83° ESE 18:16:37 10° NNE
Cosmos 1908 Rocket 3.4 18:06:54 10° S 18:11:12 78° E 18:15:33 10° NNE
Meteor 1-15 Rocket 4.1 18:07:16 10° S 18:12:47 71° E 18:18:20 10° NNE
HJ-1C 3.5 18:10:40 10° S 18:13:45 66° WSW 18:16:51 10° NNW
Cosmos 1980 Rocket 3.1 18:09:53 10° SW 18:15:20 50° NW 18:20:49 10° NNE
CZ-4B R/B 3.6 18:10:33 10° S 18:15:55 66° WSW 18:21:27 10° NNW
Lacrosse 4 Rocket 2.0 18:13:29 10° S 18:17:11 34° ESE 18:19:06 22° ENE
Cosmos 1470 2.7 18:13:35 10° S 18:17:19 54° E 18:21:06 10° NNE
Cosmos 1025 Rocket 3.1 18:13:52 10° N 18:18:07 53° ENE 18:21:33 15° SSE
Cosmos 1782 Rocket 3.6 18:15:21 10° S 18:19:34 52° E 18:23:50 10° NNE
Cosmos 1570 Rocket 4.4 18:14:41 10° NNW 18:19:55 65° WSW 18:25:05 10° S
IRS-1C Rocket 4.4 18:17:49 19° SE 18:21:19 45° ENE 18:26:18 10° N
YAOGAN 1 3.2 18:19:26 10° S 18:23:40 56° W 18:27:57 10° NNW
DMSP B5D1-3 4.4 18:20:27 10° NNE 18:25:36 76° ESE 18:30:43 10° S
Okean O Rocket 2.2 18:27:43 10° S 18:32:00 56° WSW 18:36:21 10° NNW
Cosmos 2026 Rocket 3.9 18:26:03 10° S 18:32:01 64° E 18:38:03 10° NNE
Cosmos 1844 Rocket 2.6 18:26:45 10° NNW 18:32:29 84° ENE 18:36:36 19° SSE
Cosmos 1758 3.9 18:34:01 35° ENE 18:34:01 35° ENE 18:37:14 10° NNE
deb Chang Zheng 4 4.2 18:35:32 32° ENE 18:35:41 32° ENE 18:39:24 10° N
Cosmos 1943 Rocket 4.3 18:33:50 10° N 18:36:12 13° NNE 18:38:32 10° NE
USA 267 4.2 18:30:51 10° SSE 18:37:01 42° SW 18:43:13 10° WNW
Cosmos 2278 4.4 18:35:09 10° SW 18:40:44 55° NW 18:46:20 10° NNE
SL-16 R/B 2.1 18:35:06 10° SSW 18:40:46 84° ESE 18:46:29 10° NNE
Cosmos 2292 Rocket 3.7 18:37:25 10° SSW 18:42:12 69° W 18:45:54 10° N
Cosmos 1553 Rocket 4.1 18:36:45 10° N 18:43:04 60° ENE 18:47:26 21° SSE
Cosmos 1536 Rocket 4.4 18:41:08 10° N 18:44:43 32° ENE 18:44:43 32° ENE
Cosmos 1975 Rocket 3.1 18:42:44 10° NNW 18:47:11 78° W 18:50:45 15° S
Cosmos 1486 Rocket 4.1 18:43:04 10° S 18:48:14 54° ESE 18:53:27 10° NNE
Cosmos 2278 Rocket 3.4 18:45:34 10° NNW 18:50:16 26° NE 18:51:25 24° ENE
Cosmos 773 Rocket 4.2 18:46:09 10° NNW 18:51:21 53° ENE 18:52:42 42° ESE
Cosmos 1437 Rocket 4.0 18:52:31 10° SW 18:56:04 40° WNW 18:59:38 10° N
SJ-6B 2.7 18:55:01 42° S 18:56:11 78° WSW 19:00:02 10° NNW
Cosmos 1703 3.9 18:55:25 10° N 18:58:19 41° NNE 18:58:19 41° NNE
Meteor 1-24 Rocket 4.3 18:55:06 10° NNW 19:00:15 53° W 19:05:28 10° S
Cosmos 158 Rocket 4.1 18:56:57 10° NNW 19:01:40 45° ENE 19:01:52 45° ENE
Landsat 5 3.5 18:57:34 10° NNE 19:02:06 82° ESE 19:06:32 10° SSW
Gbstr 26 Del rocket 4.5 18:55:00 10° W 19:02:48 88° N 19:07:02 32° E
Landsat 7 3.7 19:06:05 50° SSE 19:07:19 84° ENE 19:12:04 10° NNW
USA 81 4.5 19:02:14 10° NNW 19:07:28 63° W 19:12:39 10° S
Cosmos 968 Rocket 4.4 19:04:51 10° SW 19:09:57 49° WNW 19:15:03 10° NNE
Cosmos 1844 4.0 19:04:39 10° NW 19:10:10 63° WSW 19:12:55 30° S
H-2A R/B 3.0 19:14:06 44° NNE 19:14:06 44° NNE 19:16:54 10° N
USA 186 3.1 19:13:11 38° WSW 19:13:41 40° W 19:16:54 10° NNW
ATLAS 2AS CENTAUR R/B 3.8 19:08:29 10° NW 19:15:08 35° NNE 19:17:56 26° ENE
IRS-1A Rocket 4.4 19:15:40 52° E 19:16:22 56° ENE 19:22:04 10° N
Cosmos 2333 Rocket 3.6 19:13:34 10° S 19:23:37 16° NE 19:24:46 10° NE
Cosmos 2315 Rocket 4.3 19:14:44 10° N 19:20:51 45° ENE 19:20:59 45° ENE
CZ-4 R/B 4.0 19:19:34 10° SW 19:22:45 21° W 19:25:57 10° NW
Cosmos 2360 Rocket 2.0 19:18:14 10° SSW 19:23:52 87° ESE 19:29:33 10° NNE
Resurs 01 Rocket 2.0 19:24:40 54° NNE 19:24:40 54° NNE 19:28:18 10° N
Meteor 1-21 Rocket 4.0 19:19:33 10° N 19:25:08 73° ENE 19:25:40 68° ESE
NOSS 3-4 (A) 3.8 19:20:03 10° NW 19:26:49 73° NE 19:28:41 52° ESE
NOSS 3-4 (C) 3.8 19:20:10 10° NW 19:26:55 73° NE 19:28:47 52° ESE
Cosmos 921 Rocket 3.5 19:23:34 10° NNW 19:27:13 53° NNE 19:27:13 53° NNE
Resurs 1-3 4.2 19:32:03 47° SW 19:32:46 52° W 19:37:05 10° NNW
OBJECT-B 3.9 19:35:48 11° WNW 19:35:48 11° WNW 19:36:14 10° WNW
SPOT 1/Viking Rocket 3.4 19:36:41 83° NE 19:36:41 83° NE 19:41:44 10° NNW
USA 281 3.9 19:37:03 36° NE 19:37:33 36° NE 19:43:26 10° NNW
NOSS 3-3 (A) 3.7 19:32:17 10° SW 19:37:56 77° SE 19:38:52 64° ENE
NOSS 3-3 (C) 3.7 19:32:23 10° SW 19:38:02 76° SE 19:38:47 67° ENE
Ariane Rocket 3.5 19:39:07 49° NNE 19:39:07 49° NNE 19:43:11 10° N
SPOT 3 Rocket 4.5 19:44:13 37° NNE 19:44:13 37° NNE 19:47:45 10° N
USA 215 3.6 19:39:51 32° NE 19:42:55 59° NNW 19:49:18 10° W
Terra 3.8 19:47:09 19° NNE 19:47:09 19° NNE 19:48:54 10° N
Okean-O 4.1 19:43:57 27° SW 19:45:23 33° W 19:49:25 10° NNW
Cosmos 1375 Rocket 4.3 19:41:15 10° NW 19:47:49 83° NE 19:48:16 77° ESE
DNEPR-1 R/B 4.4 19:44:57 10° WSW 19:49:50 62° NW 19:53:08 26° NNE
Cosmos 2266 Rocket 3.9 19:50:27 76° E 19:50:27 76° E 19:56:43 10° NNE
Cosmos 2322 Rocket 3.2 19:48:25 10° WSW 19:53:53 45° NW 19:59:23 10° NNE
S3M 4.1 19:48:40 10° NNW 19:54:53 72° W 19:55:58 59° SSW
Lacrosse 4 Rocket 2.9 19:51:56 10° WSW 19:55:25 36° WNW 19:55:25 36° WNW
Cosmos 1655 Rocket 4.0 19:57:29 70° NE 19:57:29 70° NE 20:03:07 10° NNE
MOS 1 4.4 19:59:46 66° WSW 20:00:02 67° WSW 20:05:42 10° NNW
Aureole 1 Rocket 4.3 20:10:32 10° SW 20:17:31 60° WNW 20:22:58 10° NNE
Cosmos 1943 Rocket 3.6 20:16:40 10° NNW 20:20:02 29° NNE 20:20:02 29° NNE
SL-16 R/B 4.2 20:20:56 10° W 20:25:35 25° NW 20:30:15 10° NNE
Cosmos 2278 Rocket 3.1 20:29:20 10° NNW 20:33:15 46° NW 20:33:15 46° NW
Cosmos 2219 Rocket 4.4 20:48:47 16° NNE 20:48:47 16° NNE 20:49:53 10° NNE
Cosmos 2369 Rocket 4.1 20:40:24 10° NNW 20:43:33 22° NNE 20:43:33 22° NNE
Resurs 01 Rocket 4.4 21:02:14 15° WNW 21:02:14 15° WNW 21:03:42 10° NW
Cosmos 2333 Rocket 3.9 21:05:30 29° N 21:05:30 29° N 21:08:59 10° NNE
ATLAS 2AS CENTAUR R/B 3.3 20:59:56 10° NW 21:05:21 52° NNW 21:05:21 52° NNW
Cosmos 2360 Rocket 4.2 21:04:02 10° W 21:08:37 25° NW 21:13:12 10° NNE
USA 281 4.1 21:23:56 43° NW 21:23:56 43° NW 21:28:18 10° NNW
Terra 4.5 21:26:02 17° NNW 21:26:02 17° NNW 21:27:08 10° NNW
USA 215 4.1 21:27:12 44° NW 21:27:12 44° NW 21:31:51 10° WNW
